OBJECT AD, 63237

Orbit data source: Space-Track

You're viewing an Uncataloged Satellite

Recently launched and/or uncataloged satellites may have evolving metadata. Metadata may include but not limited to: Owner, Maufacturer, Bus, Motor, and Mission.

OBJECT AD, 63237 is a satellite in SSO that was launched on Sat, 15 Mar 2025 UTC via an FALCON 9 launch vehicle from the Air Force Western Test Range (AFWTR). Unknown objects in Earth's orbit typically refer to objects detected orbiting the Earth but have not yet been identified or cataloged. These objects could be anything from previously untracked satellites, spent rocket stages, debris from satellite collisions, or even natural meteoroids temporarily captured by Earth's gravity.

Loading next visibility...
Identifier
63237, 2025-052AD
Orbit
SSO
Country
Flag of TBDTBD
Related business
None
Manufacturer
Unknown
Mission
Operational Amateur Communications
Bus & Motor
Unknown
Mass
Unknown
Launch date (UTC)
2025-03-15 (9 months ago)
Launch vehicle
FALCON 9
Launch site
Air Force Western Test Range (AFWTR)
Object type
Unknown
Shape & HBR
Box, 0.1 m
Radar Cross Section
0.015 m², Small (<0.1 m²)

Expand to show TLE details & history
Last TLE update: 15 hours ago

TLE from 15 hours ago
0 OBJECT AD
1 63237U 25052AD  25347.19471200  .00024422  00000-0  97377-3 0  9990
2 63237  97.4137 238.5129 0009199  81.0492 279.1787 15.25151922 41612
Epoch: 2025-12-13T04:40Z
TLE epoch observation values (Epoch: 2025-12-13T04:40:23.116Z)
Latitude
-0.00003°
Longitude
86.29111°
Altitude
492.424 km
Speed
7.619 km/s
True Right ascension
15h 54m 03s
True Declination
0° 00' 00"
Sunlit
Object was in daylight at epoch
Visualization orbit readout
Latitude
Unknown
Longitude
Unknown
Altitude
Unknown
Speed
Unknown
Apparent Right ascension
Unknown
Apparent Declination
Unknown
Sunlit
N/A
Visualization observer readout
Local Sidereal Time
18:31:41
Azimuth
Unknown
Elevation
Unknown
Doppler factor
Unknown
Orbital elements
Apogee altitude
493.604 km
Perigee altitude
480.973 km
Semi-major axis
6,865.426 km
Eccentricity
0.00092
Inclination
97.4137°
RAAN
238.5129°
Arg. of periapsis
81.0492°
True anomaly
279.07462°
Mean anomaly
279.1787°
Eccentric anomaly
279.12666°
Mean motion
3.81542 °/min
Orbital period
94.35 mins
BSTAR
0.00097377
Loading maneuver chart data...
Computing Atmospheric mass density...
Loading historical data...
Loading historical data...
Loading historical data...
Loading historical data...
Loading historical data...
Loading historical data...
Loading historical data...

Documentation

Showing up to 5 results
|